Regional Weather Roundup
Issued by NWS Kansas City/Pleasant Hill, MO

Home | Current Version | Previous Version | Text Only | Print | Product List | Glossary On
Versions: 1 2 3 4 5 6 7 8 9 10 11 12 13 14 15 16 17 18 19 20 21 22 23 24 25 26 27 28 29 30 31 32 33 34 35 36 37 38 39 40 41 42 43 44 45 46 47 48 49 50
000
ASUS43 KEAX 161310
RWREAX

WEATHER ROUNDUP FOR EASTERN KANSAS AND NORTHWEST MISSOURI
NATIONAL WEATHER SERVICE KANSAS CITY/PLEASANT HILL MO
700 AM CST TUE JAN 16 2018

KSZ040-057-103>105-MOZ028-029-037-043-161400-
...KANSAS CITY METROPOLITAN AREA...

CITY           SKY/WX    TMP DP  RH WIND       PRES   REMARKS
K.C. INTL      MOCLDY    -4 -10  75 NW9       30.71R WCI -20
K.C. DOWNTOWN  CLEAR     -1  -9  68 NW9       30.75R WCI -16
LEES SUMMIT    PTCLDY    -3 -10  72 NW10      30.71R WCI -20
OLATHE - IXD   CLEAR     -5 -10  79 NW7       30.73R WCI -19
OLATHE - OJC   CLEAR     -4  -9  79 NW12      30.71R WCI -22
LAWRENCE       CLEAR     -6 -11  79 W7        30.76R WCI -20

$$

MOZ001>008-011>017-020>025-030>033-038>040-044>046-053-054-161400-
...NORTHERN AND CENTRAL MISSOURI...

CITY           SKY/WX    TMP DP  RH WIND       PRES   REMARKS
ST. JOSEPH       N/A    N/A N/A N/A MISG      30.75R
MOSBY            N/A      0  -9  65 NW9       30.73S WCI -16
WARRENSBURG    CLEAR     -4  -9  77 NW8       30.73R WCI -19
WHITEMAN AFB   CLEAR     -4 -13  67 NW8       30.66R WCI -19
CLINTON        CLEAR     -4 -11  71 MISG      30.73R
SEDALIA        PTCLDY    -3  -9  75 NW9       30.70R WCI -19
WARSAW         NOT AVBL
CHILLICOTHE      N/A     -4 -12  68 NW7       30.70S WCI -18
KIRKSVILLE     CLEAR     -7 -11  83 NW10      30.63R WCI -25

$$

MOZ041-047>049-056>058-063>065-088>090-097-161400-
...EASTERN AND SOUTHERN MISSOURI...

CITY           SKY/WX    TMP DP  RH WIND       PRES   REMARKS
ST. LOUIS INTL PTCLDY     0  -8  69 W13G21    30.65R WCI -18
SPIRIT OF STL  PTCLDY    -1  -8  72 W7        30.68R WCI -14
COLUMBIA       PTCLDY    -4 -10  75 NW9       30.66R WCI -20
JEFFERSON CITY PTCLDY    -2 -10  69 W8        30.72R WCI -17
ROLLA          PTCLDY    -5 -10  79 W8        30.64R WCI -20
OSAGE BEACH    CLOUDY    -3  -9  75 NW7       30.71R WCI -16
SPRINGFIELD    CLOUDY    -4 -10  75 NW5       30.67R WCI -15
BRANSON        PTCLDY     0  -8  71 NW10G18   30.68S WCI -17
JOPLIN         CLOUDY    -4  -9  79 W6        30.75R WCI -16
WEST PLAINS    CLOUDY    -3  -9  75 W5        30.65R WCI -13

$$

IAZ060-094-KSZ022-034>040-054-083-096-NEZ052-066-093-161400-
...KANSAS...SOUTHEAST NEBRASKA AND IOWA...

CITY           SKY/WX    TMP DP  RH WIND       PRES   REMARKS
TOPEKA         CLEAR     -2  -8  76 W7        30.77R WCI -15
MANHATTAN      CLOUDY     0  -7  72 NW5       30.78R WCI -10
EMPORIA        CLEAR     -1  -8  72 NW13      30.73S WCI -19
CHANUTE        CLEAR      1  -8  66 N9        30.76R WCI -14
WICHITA        CLEAR      4  -5  66 N14       30.77R WCI -14
OMAHA          MOCLDY    -2  -8  76 NW15      30.75R WCI -22
LINCOLN        MOCLDY    -1  -8  72 N8        30.77R WCI -15
FALLS CITY     CLOUDY    -2  -8  76 NW12      30.74R WCI -20
LAMONI         PTCLDY    -3 -10  72 NW12      30.64R WCI -21
DES MOINES     LGT SNOW  -3 -10  72 NW13      30.65S WCI -22

$$




USA.gov is the U.S. government's official web portal to all federal, state and local government web resources and services.